Location: Diebersbach
(48.5163°N, 8.0558°E)
Time: 21:34:20
(UTC+00:00)

USA 229 - Pass Details

Date: 01 November 2021
Orbit: 946 x 1266 km, 63.4° (Epoch: 25 November)

Event Time Altitude Azimuth Distance (km) Brightness Sun altitude
Rises 18:50:55 0° 268° (W) 3,711 7.8 -27.4°
Reaches altitude 10° 18:53:49 10° 280° (W) 2,804 6.9 -27.8°
Maximum altitude 18:59:32 30° 340° (NNW) 1,826 5.1 -28.8°
Enters shadow 19:03:03 20° 23° (NNE) 2,307 5.3 -29.3°
